Weather in Platnirovskaya

Russia / Krasnodar Krai     45°23′29″N   39°23′20″E
temp.,
°C
wind,
m/s
gust,
m/s
humid.,
%
clouds,
%
prec.,
mm/h
press.,
hPa
HPBL,
m
28 february, sun
sun2800:00+5sw61494100 3.2 1016701
03:00+5nw3797100 6.6 1016318
06:00+4nw2398100 3.4 1016128
09:00+4nw3598100 5.1 1017284
12:00+3n2395100 0.5 1018244
15:00+5nnw458695 0.8 1018586
18:00+4nw248499 0.3 1019134
21:00+2nw359595 0.3 1020193
1 march, mon
mon100:00+2wnw239195 0.0 1021213
03:00+1wsw239892 0.0 1022149
06:00+2wsw2497100 0.0 1023208
09:00+2w2497100 0.3 1025243
12:00+4w2279100 0.3 1025596
15:00+5nw2371100 0.5 1026776
18:00+4nnw2376100 0.2 102675
21:00+1nne128497 0.2 102822
2 march, tue
tue200:000wnw018428 0.0 102922
03:000wnw128828 0.0 102922
06:000wnw129050 0.0 102922
09:00+2wsw247762 0.0 1029305
12:00+6w566026 0.0 10281150
15:00+5w696353 0.0 10261289
18:00+3w5117275 0.0 1025458
21:00+1wsw6138174 0.0 1025636
3 march, wed
wed300:00+2wsw8148098 0.0 1023800
03:00+3wsw8158698 0.0 1021954
06:00+3wsw91687100 0.3 1020976
09:00+3wsw91597100 4.2 1020843
12:00+3wnw4897100 4.6 1020474
15:00+5wnw4782100 4.6 1021708
18:00+3nnw358975 0.1 1023124
21:00+2nw358366 0.2 1026126
4 march, thu
thu400:000nw227833 0.0 102721
03:000wnw228117 0.0 102721
06:00−1w22850 0.0 102722
09:00+2wsw23740 0.0 1028322
12:00+6w34550 0.0 10261036
15:00+7w45540 0.0 10251252
18:00+4wsw23660 0.0 102436
21:00+2wsw23740 0.0 102422